| time (UTC) | temp F | wind direction | speed MPH | gust MPH | rain 1hr in | rain 24hr in | rain mn in | humidity % | barometer mb |
| 20260508163034 | 66 | 212 | 2.0 | 6.0 | 0.00 | 0.00 | 0.00 | 60 | 1016.0 |
| 20260508161530 | 67 | 150 | 4.0 | 8.0 | 0.00 | 0.00 | 0.00 | 58 | 1015.8 |
| 20260508160029 | 69 | 149 | 2.0 | 5.0 | 0.00 | 0.00 | 0.00 | 55 | 1015.8 |
| 20260508154529 | 70 | 226 | 2.0 | 5.0 | 0.00 | 0.00 | 0.00 | 55 | 1015.8 |
| 20260508153028 | 68 | 65 | 4.0 | 8.0 | 0.00 | 0.00 | 0.00 | 56 | 1015.7 |
| 20260508151531 | 69 | 121 | 4.0 | 8.0 | 0.00 | 0.00 | 0.00 | 55 | 1015.7 |
| 20260508150033 | 69 | 129 | 3.0 | 7.0 | 0.00 | 0.00 | 0.00 | 56 | 1015.6 |
| 20260508144527 | 69 | 143 | 4.0 | 7.0 | 0.00 | 0.00 | 0.00 | 55 | 1015.8 |
| 20260508143029 | 69 | 244 | 3.0 | 11.0 | 0.00 | 0.00 | 0.00 | 55 | 1015.8 |
| 20260508141540 | 69 | 78 | 3.0 | 12.0 | 0.00 | 0.00 | 0.00 | 55 | 1015.7 |
| 20260508140024 | 69 | 76 | 3.0 | 8.0 | 0.00 | 0.00 | 0.00 | 56 | 1015.7 |
| 20260508134528 | 68 | 59 | 2.0 | 7.0 | 0.00 | 0.00 | 0.00 | 57 | 1015.8 |
| 20260508133022 | 69 | 217 | 3.0 | 8.0 | 0.00 | 0.00 | 0.00 | 55 | 1015.9 |
| 20260508131522 | 69 | 158 | 6.0 | 13.0 | 0.00 | 0.00 | 0.00 | 56 | 1015.9 |
| 20260508130021 | 69 | 284 | 4.0 | 9.0 | 0.00 | 0.00 | 0.00 | 56 | 1015.8 |
| 20260508124524 | 71 | 197 | 3.0 | 8.0 | 0.00 | 0.00 | 0.00 | 53 | 1015.6 |
| 20260508123028 | 69 | 248 | 3.0 | 12.0 | 0.00 | 0.00 | 0.00 | 54 | 1015.7 |
| 20260508121521 | 69 | 210 | 3.0 | 8.0 | 0.00 | 0.00 | 0.00 | 54 | 1015.7 |
| 20260508120019 | 70 | 231 | 3.0 | 11.0 | 0.00 | 0.00 | 0.00 | 55 | 1015.7 |
| 20260508114519 | 70 | 194 | 4.0 | 8.0 | 0.00 | 0.00 | 0.00 | 54 | 1015.7 |
| 20260508113017 | 70 | 198 | 4.0 | 10.0 | 0.00 | 0.00 | 0.00 | 55 | 1015.7 |
| 20260508111517 | 70 | 191 | 3.0 | 7.0 | 0.00 | 0.00 | 0.00 | 56 | 1015.6 |
| 20260508110017 | 70 | 235 | 2.0 | 7.0 | 0.00 | 0.00 | 0.00 | 56 | 1015.7 |
| 20260508104521 | 70 | 210 | 5.0 | 10.0 | 0.00 | 0.00 | 0.00 | 56 | 1015.8 |
| 20260508103016 | 70 | 211 | 2.0 | 7.0 | 0.00 | 0.00 | 0.00 | 59 | 1015.7 |
| 20260508101516 | 69 | 212 | 2.0 | 11.0 | 0.00 | 0.00 | 0.00 | 61 | 1015.7 |
| 20260508100010 | 69 | 97 | 4.0 | 10.0 | 0.00 | 0.00 | 0.00 | 60 | 1015.7 |
| 20260508094510 | 69 | 133 | 2.0 | 6.0 | 0.00 | 0.00 | 0.00 | 61 | 1015.8 |
| 20260508093013 | 69 | 84 | 2.0 | 8.0 | 0.00 | 0.00 | 0.00 | 61 | 1015.8 |
| 20260508091504 | 68 | 144 | 2.0 | 5.0 | 0.00 | 0.00 | 0.00 | 62 | 1015.7 |
| 20260508090008 | 68 | 286 | 1.0 | 5.0 | 0.00 | 0.00 | 0.00 | 61 | 1015.6 |
| 20260508084559 | 67 | 138 | 0.0 | 4.0 | 0.00 | 0.00 | 0.00 | 70 | 1015.5 |
| 20260508083109 | 65 | 98 | 0.0 | 2.0 | 0.00 | 0.00 | 0.00 | 69 | 1015.5 |
| 20260508081602 | 64 | 218 | 0.0 | 0.0 | 0.00 | 0.00 | 0.00 | 72 | 1015.3 |
| 20260508080050 | 64 | 125 | 0.0 | 0.0 | 0.00 | 0.00 | 0.00 | 73 | 1015.3 |
| 20260508074551 | 62 | 207 | 0.0 | 0.0 | 0.00 | 0.00 | 0.00 | 73 | 1015.2 |
| 20260508073047 | 63 | 200 | 0.0 | 0.0 | 0.00 | 0.00 | 0.00 | 73 | 1015.0 |
| 20260508071545 | 62 | 27 | 0.0 | 0.0 | 0.00 | 0.00 | 0.00 | 74 | 1014.9 |
| 20260508070042 | 60 | 6 | 0.0 | 0.0 | 0.00 | 0.00 | 0.00 | 75 | 1014.8 |
| 20260508064541 | 61 | 18 | 0.0 | 0.0 | 0.00 | 0.00 | 0.00 | 74 | 1014.8 |
| 20260508063038 | 59 | 18 | 0.0 | 0.0 | 0.00 | 0.00 | 0.00 | 77 | 1014.8 |
| 20260508061533 | 57 | 18 | 0.0 | 0.0 | 0.00 | 0.00 | 0.00 | 80 | 1014.8 |
| 20260508060030 | 57 | 18 | 0.0 | 0.0 | 0.00 | 0.00 | 0.00 | 79 | 1014.6 |
| 20260508054528 | 56 | 2 | 0.0 | 0.0 | 0.00 | 0.00 | 0.00 | 80 | 1014.5 |
| 20260508053125 | 55 | 18 | 0.0 | 0.0 | 0.00 | 0.00 | 0.00 | 80 | 1014.6 |
| 20260508051526 | 54 | 23 | 0.0 | 3.0 | 0.00 | 0.00 | 0.00 | 81 | 1014.5 |
| 20260508050024 | 53 | 311 | 1.0 | 3.0 | 0.00 | 0.00 | 0.00 | 82 | 1014.4 |
| 20260508044523 | 53 | 353 | 0.0 | 0.0 | 0.00 | 0.00 | 0.00 | 82 | 1014.2 |
| 20260508043021 | 53 | 8 | 0.0 | 0.0 | 0.00 | 0.00 | 0.00 | 83 | 1014.1 |
| 20260508041520 | 53 | 7 | 0.0 | 3.0 | 0.00 | 0.00 | 0.00 | 82 | 1014.0 |
| 20260508040018 | 53 | 6 | 1.0 | 4.0 | 0.00 | 0.00 | 0.00 | 82 | 1014.0 |
| 20260508034518 | 54 | 355 | 1.0 | 4.0 | 0.00 | 0.00 | 0.00 | 81 | 1014.0 |
| 20260508033017 | 54 | 342 | 0.0 | 2.0 | 0.00 | 0.00 | 0.00 | 82 | 1013.8 |
| 20260508031516 | 54 | 343 | 1.0 | 4.0 | 0.00 | 0.00 | 0.00 | 81 | 1013.8 |
| 20260508030015 | 54 | 16 | 2.0 | 4.0 | 0.00 | 0.00 | 0.00 | 80 | 1013.9 |
| 20260508024515 | 54 | 285 | 0.0 | 4.0 | 0.00 | 0.00 | 0.00 | 80 | 1014.0 |
| 20260508023014 | 54 | 34 | 3.0 | 8.0 | 0.00 | 0.00 | 0.00 | 80 | 1013.8 |
| 20260508021521 | 54 | 358 | 1.0 | 4.0 | 0.00 | 0.00 | 0.00 | 79 | 1013.9 |
| 20260508020011 | 54 | 22 | 4.0 | 8.0 | 0.00 | 0.00 | 0.00 | 79 | 1014.1 |
| 20260508014509 | 54 | 333 | 4.0 | 7.0 | 0.00 | 0.00 | 0.00 | 80 | 1014.0 |
| 20260508013007 | 53 | 327 | 2.0 | 6.0 | 0.00 | 0.00 | 0.00 | 81 | 1014.1 |
| 20260508011510 | 54 | 302 | 1.0 | 6.0 | 0.00 | 0.00 | 0.00 | 80 | 1014.3 |
| 20260508010011 | 54 | 323 | 1.0 | 4.0 | 0.00 | 0.00 | 0.00 | 78 | 1014.2 |
| 20260508004502 | 54 | 309 | 1.0 | 4.0 | 0.00 | 0.00 | 0.00 | 77 | 1014.4 |
| 20260508003104 | 54 | 328 | 1.0 | 7.0 | 0.00 | 0.00 | 0.00 | 77 | 1014.4 |
| 20260508001559 | 54 | 324 | 3.0 | 6.0 | 0.00 | 0.00 | 0.00 | 76 | 1014.5 |
| 20260508000057 | 54 | 331 | 3.0 | 7.0 | 0.00 | 0.00 | 0.00 | 76 | 1014.8 |
| 20260507234556 | 55 | 295 | 3.0 | 7.0 | 0.00 | 0.00 | 0.00 | 75 | 1014.9 |
| 20260507233053 | 54 | 243 | 4.0 | 9.0 | 0.00 | 0.00 | 0.00 | 77 | 1015.0 |
| 20260507231555 | 54 | 323 | 1.0 | 5.0 | 0.00 | 0.00 | 0.00 | 77 | 1015.1 |
| 20260507230101 | 54 | 18 | 1.0 | 4.0 | 0.00 | 0.00 | 0.00 | 80 | 1015.3 |
| 20260507224550 | 54 | 358 | 0.0 | 1.0 | 0.00 | 0.00 | 0.00 | 80 | 1015.3 |
| 20260507223047 | 54 | 338 | 0.0 | 5.0 | 0.00 | 0.00 | 0.00 | 78 | 1015.3 |
| 20260507221547 | 55 | 301 | 0.0 | 6.0 | 0.00 | 0.00 | 0.00 | 76 | 1015.4 |
| 20260507220044 | 55 | 316 | 1.0 | 4.0 | 0.00 | 0.00 | 0.00 | 75 | 1015.4 |
| 20260507214604 | 56 | 268 | 1.0 | 6.0 | 0.00 | 0.00 | 0.00 | 74 | 1015.3 |
| 20260507213048 | 55 | 278 | 0.0 | 3.0 | 0.00 | 0.00 | 0.00 | 77 | 1015.1 |
| 20260507211546 | 55 | 283 | 0.0 | 2.0 | 0.00 | 0.00 | 0.00 | 76 | 1015.2 |
| 20260507210051 | 56 | 41 | 1.0 | 6.0 | 0.00 | 0.00 | 0.00 | 74 | 1014.9 |
| 20260507204540 | 56 | 353 | 1.0 | 4.0 | 0.00 | 0.00 | 0.00 | 75 | 1015.0 |
| 20260507203048 | 56 | 344 | 3.0 | 7.0 | 0.00 | 0.00 | 0.00 | 77 | 1014.9 |
| 20260507201543 | 55 | 330 | 0.0 | 0.0 | 0.00 | 0.00 | 0.00 | 85 | 1014.8 |
| 20260507200039 | 55 | 20 | 0.0 | 0.0 | 0.00 | 0.00 | 0.00 | 85 | 1014.8 |
| 20260507194605 | 55 | 357 | 0.0 | 3.0 | 0.00 | 0.00 | 0.00 | 83 | 1014.8 |
| 20260507193035 | 55 | 11 | 0.0 | 5.0 | 0.00 | 0.00 | 0.00 | 82 | 1014.7 |
| 20260507191537 | 56 | 321 | 1.0 | 4.0 | 0.00 | 0.00 | 0.00 | 84 | 1014.6 |
| 20260507190033 | 57 | 207 | 0.0 | 0.0 | 0.00 | 0.00 | 0.00 | 85 | 1014.3 |
| 20260507184534 | 57 | 349 | 0.0 | 0.0 | 0.00 | 0.00 | 0.00 | 82 | 1014.3 |
| 20260507183035 | 58 | 352 | 0.0 | 0.0 | 0.00 | 0.00 | 0.00 | 78 | 1014.0 |
| 20260507181529 | 59 | 339 | 0.0 | 2.0 | 0.00 | 0.00 | 0.00 | 78 | 1014.0 |
| 20260507180031 | 60 | 347 | 1.0 | 3.0 | 0.00 | 0.00 | 0.00 | 75 | 1014.1 |
| 20260507174536 | 62 | 56 | 0.0 | 0.0 | 0.00 | 0.00 | 0.00 | 74 | 1013.9 |
| 20260507173035 | 62 | 98 | 0.0 | 3.0 | 0.00 | 0.00 | 0.00 | 75 | 1013.7 |
| 20260507171527 | 62 | 12 | 1.0 | 3.0 | 0.00 | 0.00 | 0.00 | 74 | 1013.7 |
| 20260507170027 | 62 | 231 | 0.0 | 5.0 | 0.00 | 0.00 | 0.00 | 74 | 1013.8 |
| 20260507164526 | 62 | 152 | 2.0 | 5.0 | 0.00 | 0.00 | 0.00 | 71 | 1013.9 |